This is the latest recevied weather packets stored in our database for station/object K0WOI. If no packets are shown the sender has not sent any weather packets the latest 10 day(s).
| Time | Temp. | Humidity | Pressure | Rain* | Wind** | Luminosity | Snow |
|---|---|---|---|---|---|---|---|
| 1778170200 | 11.67° C | 71% | 1012 hPa | 0 mm | - | 177 W/m² | - |
| 1778169895 | 11.67° C | 67% | 1011.9 hPa | 0 mm | - | 252 W/m² | - |
| 1778169591 | 11.67° C | 71% | 1012 hPa | 0 mm | - | 169 W/m² | - |
| 1778169288 | 11.67° C | 72% | 1012.1 hPa | 0 mm | - | 210 W/m² | - |
| 1778168985 | 11.67° C | 68% | 1012.3 hPa | 0 mm | - | 230 W/m² | - |
| 1778168681 | 11.67° C | 70% | 1011.8 hPa | 0 mm | - | 126 W/m² | - |
| 1778168378 | 10.56° C | 71% | 1012 hPa | 0 mm | - | 244 W/m² | - |
| 1778168076 | 10.56° C | 72% | 1012 hPa | 0 mm | - | 78 W/m² | - |
| 1778167771 | 11.11° C | 74% | 1012.4 hPa | 0 mm | - | 109 W/m² | - |
| 1778167468 | 10.56° C | 75% | 1012.3 hPa | 0 mm | - | 127 W/m² | - |
| 1778167164 | 10.56° C | 75% | 1012.2 hPa | 0 mm | - | 137 W/m² | - |
| 1778166861 | 10° C | 76% | 1011.5 hPa | 0 mm | - | 188 W/m² | - |
| 1778166558 | 10° C | 80% | 1011.8 hPa | 0 mm | - | 133 W/m² | - |
| 1778166254 | 10° C | 79% | 1011.8 hPa | 0 mm | - | 104 W/m² | - |
| 1778165951 | 10° C | 77% | 1012.1 hPa | 0 mm | - | 265 W/m² | - |
| 1778165647 | 10° C | 75% | 1012 hPa | 0 mm | - | 91 W/m² | - |
| 1778165344 | 10° C | 75% | 1012.2 hPa | 0 mm | - | 57 W/m² | - |
| 1778165041 | 10° C | 74% | 1012.4 hPa | 0 mm | - | 45 W/m² | - |
| 1778164737 | 10° C | 76% | 1012.4 hPa | 0 mm | - | 61 W/m² | - |
| 1778164435 | 10° C | 78% | 1012.4 hPa | 0 mm | - | 141 W/m² | - |
| 1778164131 | 10° C | 78% | 1012.6 hPa | 0 mm | - | 319 W/m² | - |
| 1778163827 | 9.44° C | 79% | 1012.6 hPa | 0 mm | - | 158 W/m² | - |
| 1778163524 | 8.89° C | 85% | 1012.8 hPa | 0 mm | - | 206 W/m² | - |
| 1778163221 | 8.33° C | 82% | 1012.7 hPa | 0 mm | - | 131 W/m² | - |
| 1778162917 | 7.78° C | 86% | 1012.7 hPa | 0 mm | - | 111 W/m² | - |
* Rain latest hour (hover to see other rain measurements)
** Current wind speed in m/s (hover to see current wind gust speed)